Zurück zum Katalog

STARLINK-5458

AktivKommunikationVLEO
NORAD 54764·PAYLOAD·🇺🇸 United States

Gestartet Dec 17, 2022 von Cape Canaveral Space Force Station

Loading…

Nächste Überflüge (nächste 24 Stunden)

TLE

AktuellSource: CelesTrak SupGP

Epoche: Sep 14, 2026, 21:46 UTC

1 54764C 22175G   26257.90743056  .00045875  00000+0  13556-2 0  2576
2 54764  53.1570 263.8705 0001288  91.7175 132.9536 15.34361887    15

Verfolge STARLINK-5458 in Echtzeit mit AllMySat

Download on the App Store